TimeMST,TemperatureF,Dew PointF,Humidity,Sea Level PressureIn,VisibilityMPH,Wind Direction,Wind SpeedMPH,Gust SpeedMPH,PrecipitationIn,Events,Conditions,WindDirDegrees,DateUTC
12:53 AM,35.1,30.0,82,29.75,10.0,West,8.1,-,N/A,,Overcast,270,2013-03-04 07:53:00
2:53 AM,34.0,30.0,85,29.75,9.0,Calm,Calm,-,0.00,Snow,Light Snow,0,2013-03-04 09:53:00
3:53 AM,33.1,30.0,89,29.75,9.0,WNW,6.9,-,0.00,Snow,Light Snow,290,2013-03-04 10:53:00
4:53 AM,30.9,30.0,96,29.77,8.0,NW,3.5,-,0.00,Snow,Light Snow,310,2013-03-04 11:53:00
5:53 AM,32.0,30.9,96,29.79,10.0,WNW,5.8,-,0.00,,Overcast,300,2013-03-04 12:53:00
6:53 AM,32.0,30.0,92,29.80,10.0,NW,5.8,-,0.00,,Overcast,320,2013-03-04 13:53:00
7:53 AM,33.1,30.0,89,29.83,10.0,WNW,10.4,-,N/A,,Overcast,300,2013-03-04 14:53:00
8:34 AM,32.0,28.4,87,29.98,10.0,NNW,6.9,-,N/A,,Mostly Cloudy,340,2013-03-04 15:34:00
8:43 AM,35.6,30.2,81,29.98,10.0,North,6.9,-,N/A,,Mostly Cloudy,360,2013-03-04 15:43:00
8:53 AM,34.0,30.0,85,29.84,10.0,NNW,11.5,-,N/A,,Mostly Cloudy,330,2013-03-04 15:53:00
9:37 AM,33.8,30.2,87,30.00,10.0,NW,13.8,-,N/A,,Overcast,310,2013-03-04 16:37:00
9:53 AM,33.1,28.9,85,29.89,10.0,NW,11.5,-,N/A,,Overcast,320,2013-03-04 16:53:00
10:53 AM,36.0,28.9,76,29.89,10.0,WNW,15.0,21.9,N/A,,Scattered Clouds,300,2013-03-04 17:53:00
11:53 AM,36.0,27.0,70,29.92,10.0,WNW,18.4,-,N/A,,Partly Cloudy,300,2013-03-04 18:53:00
12:53 PM,37.0,26.1,65,29.92,10.0,WNW,18.4,-,N/A,,Scattered Clouds,290,2013-03-04 19:53:00
1:53 PM,36.0,26.1,67,29.93,10.0,WNW,21.9,27.6,N/A,,Clear,290,2013-03-04 20:53:00
2:53 PM,36.0,25.0,64,29.95,10.0,WNW,21.9,28.8,N/A,,Clear,300,2013-03-04 21:53:00
3:53 PM,36.0,24.1,62,29.99,10.0,WNW,19.6,26.5,N/A,,Clear,300,2013-03-04 22:53:00
4:53 PM,35.1,23.0,61,30.01,10.0,WNW,19.6,-,N/A,,Clear,300,2013-03-04 23:53:00
5:53 PM,34.0,24.1,67,30.04,10.0,NW,12.7,-,N/A,,Partly Cloudy,310,2013-03-05 00:53:00
6:10 PM,32.0,23.0,69,30.14,10.0,North,8.1,-,N/A,,Mostly Cloudy,350,2013-03-05 01:10:00
6:35 PM,30.2,21.2,69,30.16,10.0,North,6.9,-,N/A,,Scattered Clouds,350,2013-03-05 01:35:00
6:53 PM,28.9,21.9,75,30.09,10.0,NW,3.5,-,N/A,,Scattered Clouds,310,2013-03-05 01:53:00
7:53 PM,26.1,19.9,78,30.12,10.0,NNW,8.1,-,N/A,,Clear,330,2013-03-05 02:53:00
8:53 PM,25.0,19.9,81,30.14,10.0,WNW,5.8,-,N/A,,Clear,290,2013-03-05 03:53:00
9:53 PM,24.1,19.9,84,30.15,10.0,NW,9.2,-,N/A,,Clear,320,2013-03-05 04:53:00
10:53 PM,21.9,18.0,85,30.16,10.0,NW,9.2,-,N/A,,Clear,310,2013-03-05 05:53:00